Hourly Data Report for October 16, 2014

All times are specified in Local Standard Time (LST). Add 1 hour to adjust for Daylight Saving Time where and when it is observed.

CLYDE RIVER A
NUNAVUT

70°29'09.000" N
68°31'01.000" W
26.50 m
2400804
71090
YCY

Download Data

Hourly Data (October 2014)
Hourly Data Report for October 16, 2014
Temp Definition
°C
Dew Point Temp Definition
°C
Rel Hum Definition
%
Wind Dir Definition
10's deg

Wind Spd Definition
km/h
Visibility Definition
km
Stn Press Definition
kPa
Hmdx Definition


Wind Chill Definition


Weather Definition


TIME
00:00 Legend Double Dagger 0.2 -0.1 98 7 28 9.7 100.01     Rain,Fog
01:00 Legend Double Dagger 0.2 -0.1 98 7 28 4.0 100.05     Snow
02:00 Legend Double Dagger 0.1 0.0 99 6 26 2.8 100.10     Snow
03:00 Legend Double Dagger 0.2 -0.1 98 5 28 3.2 100.14     Snow
04:00 Legend Double Dagger 0.2 -0.1 98 5 26 4.8 100.20     Snow
05:00 Legend Double Dagger 0.2 -0.1 98 5 30 4.0 100.25     Fog
06:00 Legend Double Dagger -0.1 -0.5 97 5 37 4.8 100.29   -7 Snow
07:00 Legend Double Dagger -0.2 -0.6 97 3 32 9.7 100.33   -7 Snow
08:00 Legend Double Dagger -0.1 -0.7 96 1 37 3.2 100.32   -7 Snow
09:00 Legend Double Dagger -0.2 -0.6 97 36 35 4.8 100.35   -7 Snow
10:00 Legend Double Dagger -0.3 -0.7 97 36 37 1.6 100.35   -8 Snow
11:00 Legend Double Dagger -0.3 -0.9 96 35 41 1.6 100.35   -8 Snow
12:00 Legend Double Dagger -0.3 -0.9 96 35 45 1.2 100.35   -8 Snow
13:00 Legend Double Dagger -0.4 -1.0 96 34 46 1.0 100.37   -8 Snow
14:00 Legend Double Dagger -0.5 -1.1 96 34 50 1.2 100.37   -9 Snow
15:00 Legend Double Dagger -0.6 -1.0 97 34 52 1.0 100.38   -9 Snow
16:00 Legend Double Dagger -0.8 -1.2 97 34 54 0.6 100.42   -10 Moderate Snow
17:00 Legend Double Dagger -0.9 -1.3 97 34 52 1.0 100.47   -10 Snow
18:00 Legend Double Dagger -0.9 -1.3 97 34 52 1.0 100.50   -10 Snow
19:00 Legend Double Dagger -1.0 -1.4 97 33 54 1.2 100.56   -10 Snow
20:00 Legend Double Dagger -1.6 -2.2 96 34 58 0.8 100.63   -11 Moderate Snow
21:00 Legend Double Dagger -2.0 -2.6 96 33 55 0.8 100.66   -11 Moderate Snow
22:00 Legend Double Dagger -2.7 -3.4 95 33 59 1.2 100.71   -12 Snow
23:00 Legend Double Dagger -3.0 -3.8 94 33 55 1.2 100.75   -13 Snow

Notes on Data Quality.

Legend

  • E = Estimated
  • M = Missing
  • NA = Not Available
  • ‡ = Partner data that is not subject to review by the National Climate Archives
Date modified: